User: anonymous   Login
Location: Brachbach
(49.1847°N, 9.7240°E)
Time: 13:15:00
(UTC+00:00)
Language:

FENGYUN 3A - Orbit

View from above orbital plane
View from above orbital plane
View from above satellite
View from above satellite

Ground track
Ground track

The orbit data is extracted from the following two-line orbital elements,

1 32958U 08026A   24205.55502865  .00000431  00000-0  22640-3 0  9997
2 32958  98.6050 151.6263 0008258 335.2426  24.8353 14.19128770837114
Epoch (UTC): 23 July 2024 13:19:14
Eccentricity: 0.0008258
inclination: 98.6050°
perigee height: 822 km
apogee height: 834 km
right ascension of ascending node: 151.6263°
argument of perigee: 335.2426°
revolutions per day: 14.19128770
mean anomaly at epoch: 24.8353°
orbit number at epoch: 83711

The dashed part of the orbit path shows where the satellite is in the earth's shadow,  

DLR